FW3598 Weather Reports


time (UTC)temp
C
wind
direction
speed
KPH
gust
KPH
rain 1hr
cm
rain 24hr
cm
rain mn
cm
humidity
%
barometer
mb
20260504141144 13 23 0.0 0.0 0.00 0.00 0.00 88 1009.3
20260504140123 13 23 0.0 0.0 0.00 0.00 0.00 89 1009.3
20260504130123 13 113 0.0 0.0 0.00 0.00 0.00 83 1008.8
20260504120122 15 23 0.0 0.0 0.00 0.00 0.00 75 1008.8
20260504110124 15 23 0.0 0.0 0.00 0.00 0.00 78 1008.8
20260504100122 15 360 0.0 0.0 0.00 0.00 0.00 78 1008.7
20260504090122 15 23 0.0 0.0 0.00 0.00 0.00 81 1008.7
20260504081123 15 23 0.0 0.0 0.00 0.00 0.00 77 1008.3
20260504080144 15 135 0.0 0.0 0.00 0.00 0.00 77 1008.3
20260504070122 16 23 0.0 0.0 0.00 0.00 0.00 74 1008.1
20260504060144 17 248 0.0 0.0 0.00 0.00 0.00 70 1008.0
20260504050122 20 158 0.0 0.0 0.00 0.00 0.00 59 1008.0
20260504045123 20 45 0.0 0.0 0.00 0.00 0.00 61 1008.0
20260504044122 20 113 0.0 0.0 0.00 0.00 0.00 59 1008.0
20260504043145 21 90 0.0 0.0 0.00 0.00 0.00 58 1008.1
20260504042122 21 338 0.0 0.0 0.00 0.00 0.00 53 1008.0
20260504041143 22 338 0.0 0.0 0.00 0.00 0.00 50 1008.1
20260504040122 22 360 0.0 0.0 0.00 0.00 0.00 51 1007.8
20260504035122 22 360 0.0 0.0 0.00 0.00 0.00 49 1007.8
20260504034143 22 23 0.0 0.0 0.00 0.00 0.00 52 1007.8
20260504033122 23 338 0.0 0.0 0.00 0.00 0.00 53 1008.0
20260504032123 23 90 0.0 0.0 0.00 0.00 0.00 52 1008.0
20260504031122 24 180 0.0 0.0 0.00 0.00 0.00 50 1008.0
20260504030122 25 180 0.0 0.0 0.00 0.00 0.00 47 1008.2
20260504025122 26 270 0.0 0.0 0.00 0.00 0.00 45 1008.2
20260504024122 26 158 0.0 0.0 0.00 0.00 0.00 44 1008.1
20260504023122 27 203 0.0 0.0 0.00 0.00 0.00 43 1008.2
20260504022122 26 270 0.0 0.0 0.00 0.00 0.00 44 1008.3
20260504021144 27 180 0.0 0.0 0.00 0.00 0.00 43 1008.5
20260504020122 28 203 0.0 0.0 0.00 0.00 0.00 38 1008.5
20260504015122 27 203 0.0 0.0 0.00 0.00 0.00 43 1008.5
20260504014122 28 90 0.0 0.0 0.00 0.00 0.00 42 1008.6
20260504013143 28 180 0.0 0.0 0.00 0.00 0.00 43 1008.7
20260504012122 28 158 0.0 0.0 0.00 0.00 0.00 43 1008.8
20260504011122 28 203 0.0 0.0 0.00 0.00 0.00 43 1009.0
20260504010143 28 180 0.0 3.2 0.00 0.00 0.00 44 1009.2
20260504005122 28 270 0.0 0.0 0.00 0.00 0.00 43 1009.2
20260504004122 28 158 0.0 0.0 0.00 0.00 0.00 43 1009.2
20260504003122 28 270 0.0 0.0 0.00 0.00 0.00 43 1009.5
20260504002122 28 270 0.0 0.0 0.00 0.00 0.00 44 1009.6
20260504001143 28 180 0.0 0.0 0.00 0.00 0.00 45 1009.7
20260504000122 27 158 0.0 0.0 0.00 0.00 0.00 46 1009.8
20260503235122 27 270 0.0 0.0 0.00 0.00 0.00 47 1009.8
20260503234122 27 180 0.0 0.0 0.00 0.00 0.00 48 1010.0
20260503233143 27 158 0.0 0.0 0.00 0.00 0.00 48 1010.1
20260503232143 26 180 0.0 0.0 0.00 0.00 0.00 48 1010.3
20260503231143 27 23 0.0 0.0 0.00 0.00 0.00 47 1010.5
20260503230123 26 158 0.0 0.0 0.00 0.00 0.00 47 1010.7
20260503225122 27 270 0.0 0.0 0.00 0.00 0.00 45 1010.7
20260503224124 27 167 0.0 4.8 0.00 0.00 0.00 46 1010.8
20260503223145 26 158 0.0 3.2 0.00 0.00 0.00 47 1011.0
20260503222124 26 154 0.0 4.8 0.00 0.00 0.00 48 1011.1
20260503221124 26 174 0.0 8.0 0.00 0.00 0.00 46 1011.2
20260503220124 26 173 0.0 3.2 0.00 0.00 0.00 47 1011.3
20260503215124 26 180 0.0 0.0 0.00 0.00 0.00 48 1011.3
20260503214124 26 113 0.0 0.0 0.00 0.00 0.00 53 1011.5
20260503213123 24 164 0.0 4.8 0.00 0.00 0.00 54 1011.8
20260503212124 25 184 0.0 6.4 0.00 0.00 0.00 52 1011.8
20260503211124 25 180 0.0 4.8 0.00 0.00 0.00 49 1012.0
20260503210124 25 177 0.0 6.4 0.00 0.00 0.00 48 1012.1
20260503205124 26 203 0.0 0.0 0.00 0.00 0.00 49 1012.1
20260503204123 25 189 0.0 4.8 0.00 0.00 0.00 47 1012.3
20260503203145 26 158 0.0 3.2 0.00 0.00 0.00 50 1012.3
20260503202124 25 147 0.0 4.8 0.00 0.00 0.00 51 1012.5
20260503201124 25 207 0.0 4.8 0.00 0.00 0.00 53 1012.7
20260503200123 24 158 0.0 4.8 0.00 0.00 0.00 57 1012.8
20260503195123 24 202 0.0 3.2 0.00 0.00 0.00 57 1012.8
20260503194123 23 142 0.0 3.2 0.00 0.00 0.00 56 1013.0
20260503193124 23 184 0.0 4.8 0.00 0.00 0.00 57 1013.1
20260503192123 23 180 0.0 3.2 0.00 0.00 0.00 57 1013.2
20260503191123 23 169 0.0 3.2 0.00 0.00 0.00 57 1013.3
20260503190124 23 180 0.0 3.2 0.00 0.00 0.00 60 1013.6
20260503185124 22 180 0.0 4.8 0.00 0.00 0.00 62 1013.6
20260503184124 22 202 0.0 3.2 0.00 0.00 0.00 65 1013.6
20260503183123 22 293 0.0 0.0 0.00 0.00 0.00 65 1013.6
20260503182124 22 203 0.0 0.0 0.00 0.00 0.00 66 1013.7
20260503181145 22 270 0.0 0.0 0.00 0.00 0.00 67 1013.7
20260503180123 22 180 0.0 0.0 0.00 0.00 0.00 67 1013.6
20260503175124 22 203 0.0 0.0 0.00 0.00 0.00 66 1013.6
20260503174124 22 113 0.0 0.0 0.00 0.00 0.00 66 1013.7
20260503173123 22 203 0.0 0.0 0.00 0.00 0.00 66 1013.7
20260503172124 21 225 0.0 0.0 0.00 0.00 0.00 66 1013.8
20260503171123 21 68 0.0 0.0 0.00 0.00 0.00 66 1013.8
20260503170123 21 158 0.0 0.0 0.00 0.00 0.00 65 1014.0
20260503160123 17 158 0.0 0.0 0.00 0.00 0.00 85 1014.5
20260503150144 13 203 0.0 0.0 0.00 0.00 0.00 99 1014.3